Miscellaneous Local Product
Issued by NWS North Platte, NE

Home | Current Version | Previous Version | Graphics & Text | Print | Product List | Glossary On
Versions: 1 2 3 4 5 6 7 8 9 10 11 12 13 14 15 16 17 18 19 20 21 22 23 24 25 26 27 28 29 30 31 32 33 34 35 36 37 38 39 40 41 42 43 44 45 46 47 48 49 50
000
AXUS43 KLBF 241210
MISLBF


WESTERN AND NORTH CENTRAL NEBRASKA HOURLY WEATHER ROUNDUP
NATIONAL WEATHER SERVICE NORTH PLATTE NE
700 AM CDT WED MAY 24 2017

NOTE: "FAIR" INDICATES FEW OR NO CLOUDS BELOW 12,000 FEET WITH NO
SIGNIFICANT WEATHER AND/OR OBSTRUCTIONS TO VISIBILITY.

NOTE: STATIONS NOT REPORTING VARIABLES SUCH AS SKY/WEATHER OR
PRESSURE ARE PROVIDED BY RAWS AND APRS NETWORKS AND ARE NOT UNDER
NATIONAL WEATHER SERVICE QUALITY CONTROL.

...OBSERVATIONS IN AND NEAR THE EASTERN PANHANDLE OF NEBRASKA...

CITY           SKY/WX    TMP DP  RH WIND       PRES   REMARKS
PINE RIDGE     CLEAR     40  36  86 CALM      29.82F
GORDON         FAIR      37  34  89 SW6       29.83F WCI  32
CHADRON        CLOUDY    44  35  70 S3        29.80F
ALLIANCE       CLEAR     33  31  92 SE8       29.83F WCI  26
SIDNEY         CLOUDY    33  31  92 S8        29.86F WCI  26
CRESCENT LAKE    N/A     39  36  88 CALM        N/A
$$

...OBSERVATIONS IN NORTHERN NEBRASKA AND FAR SOUTHERN SOUTH DAKOTA...

CITY           SKY/WX    TMP DP  RH WIND       PRES   REMARKS
WINNER         FAIR      38  36  92 SW5       29.85F WCI  34
VALENTINE      CLOUDY    33  29  85 SW5       29.85F WCI  29
THEDFORD       CLEAR     33  33  97 W6        29.87S WCI  28
AINSWORTH      CLOUDY    37  36  96 W5        29.85F WCI  33
O`NEILL        CLEAR     42  40  90 W6        29.85S
ORD            CLEAR     39  37  92 NW5       29.84F
BROKEN BOW     CLEAR     38  36  92 W3        29.85F
VALENTINE NWR    N/A     35  33  94 CALM        N/A
HALSEY           N/A     34  33  96 CALM        N/A
BUTTE            N/A     41  39  92 CALM        N/A
CHAMBERS         N/A     42  41  95 CALM        N/A
EWING            N/A     43  41  94 N3          N/A
$$

...OBSERVATIONS IN SOUTHWEST NEBRASKA AND FAR NORTHEAST COLORADO...

CITY           SKY/WX    TMP DP  RH WIND       PRES   REMARKS
WRAY           FAIR      34  34 100 CALM      29.89F
IMPERIAL       CLEAR     37  33  85 NW3       29.89F
OGALLALA       CLEAR     33  32  96 CALM      29.88F
NORTH PLATTE   CLEAR     32  31  96 NW6       29.88S WCI  26
MCCOOK         CLEAR     38  37  97 W7        29.89S WCI  33
LEXINGTON      CLEAR     37  36  93 NW6       29.86F WCI  33
STAPLETON        N/A     34  32  93 CALM        N/A
GOTHENBURG       N/A     37  34  88 NW5         N/A  WCI  33
CALLAWAY         N/A     36  34  92 NW8         N/A  WCI  30
$$

...OBSERVATIONS IN CENTRAL LINCOLN COUNTY AREA...

CITY           SKY/WX    TMP DP  RH WIND       PRES   REMARKS
N.P. AIRPORT   CLEAR     32  31  96 NW6       29.88S WCI  26
N.P. DOWNTOWN    N/A     38  35  90 CALM        N/A
N.P. SOUTHEAST   N/A     37  34  89 CALM        N/A
N.P. HILLCREST   N/A     36  34  93 CALM        N/A
$$

...SOME OBSERVATIONS FROM AROUND THE REGION...

CITY           SKY/WX    TMP DP  RH WIND       PRES   REMARKS
DENVER         PTCLDY    38  33  82 S9        29.86F WCI  31
LIMON          CLOUDY    30  29  96 CALM      29.90F
ASPEN          CLOUDY    34  28  79 CALM      30.10F
LARAMIE        CLOUDY    41  32  70 MISG      29.92F
CASPER         CLEAR     49  37  63 SW12      29.79F
CHEYENNE       CLOUDY    42  32  67 SW12      29.86F
SCOTTSBLUFF    CLEAR     38  34  85 E10       29.82F WCI  31
GRAND ISLAND   CLEAR     44  42  93 NW9       29.86R
OMAHA          PTCLDY    49  44  83 N13       29.77R
SIOUX FALLS    PTSUNNY   45  44  97 NE5       29.81F
PIERRE         CLEAR     35  32  88 CALM      29.82F
RAPID CITY     CLEAR     38  34  85 S9        29.78F WCI  31
BISMARCK       CLOUDY    38  35  89 CALM      29.81F
KANSAS CITY    CLOUDY    50  48  93 NW8       29.71S
HILL CITY      CLEAR     41  38  89 NW9       29.89S
WICHITA        CLEAR     48  43  82 NW9       29.82S
DODGE CITY     CLEAR     40  36  86 NW9       29.89F WCI  34
OKLAHOMA CITY  CLEAR     50  43  77 NW10      29.85S
DALLAS         PTCLDY    58  48  69 NW13      29.83R
AMARILLO       CLEAR     42  35  76 W6        29.95F
$$




USA.gov is the U.S. government's official web portal to all federal, state and local government web resources and services.